Time,TemperatureF,DewpointF,PressureIn,WindDirection,WindDirectionDegrees,WindSpeedMPH,WindSpeedGustMPH,Humidity,HourlyPrecipIn,Conditions,Clouds,dailyrainin,SoftwareType,DateUTC
2013-03-16 00:01:00,39.0,25.0,29.99,South,182,2.0,5.0,58,0.00,,,0.00,,2013-03-16 07:01:00,
2013-03-16 00:32:00,40.0,26.0,29.96,South,177,3.0,5.0,58,0.00,,,0.00,,2013-03-16 07:32:00,
2013-03-16 00:42:00,40.0,26.0,29.96,South,177,3.0,5.0,58,0.00,,,0.00,,2013-03-16 07:42:00,
2013-03-16 00:52:00,40.0,26.0,29.96,SSW,202,2.0,3.0,58,0.00,,,0.00,,2013-03-16 07:52:00,
2013-03-16 01:02:00,40.0,26.0,29.96,SSE,161,3.0,6.0,58,0.00,,,0.00,,2013-03-16 08:02:00,
2013-03-16 01:12:00,40.0,26.0,29.96,SSE,161,3.0,6.0,58,0.00,,,0.00,,2013-03-16 08:12:00,
2013-03-16 01:22:00,39.0,25.0,29.96,SSE,158,3.0,3.0,58,0.00,,,0.00,,2013-03-16 08:22:00,
2013-03-16 01:32:00,39.0,25.0,29.96,South,184,3.0,5.0,58,0.00,,,0.00,,2013-03-16 08:32:00,
2013-03-16 01:42:00,39.0,25.0,29.96,South,184,3.0,5.0,58,0.00,,,0.00,,2013-03-16 08:42:00,
2013-03-16 01:52:00,39.0,25.0,29.96,South,184,3.0,5.0,58,0.00,,,0.00,,2013-03-16 08:52:00,
2013-03-16 02:01:00,39.0,25.0,29.96,South,171,5.0,7.0,56,0.00,,,0.00,,2013-03-16 09:01:00,
2013-03-16 02:11:00,39.0,25.0,29.96,South,171,5.0,7.0,56,0.00,,,0.00,,2013-03-16 09:11:00,
2013-03-16 02:22:00,39.0,25.0,29.96,South,171,5.0,7.0,56,0.00,,,0.00,,2013-03-16 09:22:00,
2013-03-16 02:32:00,39.0,25.0,29.96,SSW,197,3.0,3.0,56,0.00,,,0.00,,2013-03-16 09:32:00,
2013-03-16 02:42:00,39.0,25.0,29.96,SSW,197,3.0,3.0,56,0.00,,,0.00,,2013-03-16 09:42:00,
2013-03-16 02:53:00,39.0,25.0,29.96,SSW,197,3.0,3.0,56,0.00,,,0.00,,2013-03-16 09:53:00,
2013-03-16 03:03:00,39.0,25.0,29.96,SSW,202,3.0,5.0,56,0.00,,,0.00,,2013-03-16 10:03:00,
2013-03-16 03:12:00,39.0,25.0,29.96,SSW,202,3.0,5.0,56,0.00,,,0.00,,2013-03-16 10:12:00,
2013-03-16 03:22:00,39.0,25.0,29.96,South,191,2.0,5.0,56,0.00,,,0.00,,2013-03-16 10:22:00,
2013-03-16 03:32:00,38.0,24.0,29.96,SSE,158,1.0,2.0,57,0.00,,,0.00,,2013-03-16 10:32:00,
2013-03-16 03:42:00,38.0,24.0,29.96,SSE,158,1.0,2.0,57,0.00,,,0.00,,2013-03-16 10:42:00,
2013-03-16 03:52:00,38.0,24.0,29.96,SSW,202,1.0,2.0,56,0.00,,,0.00,,2013-03-16 10:52:00,
2013-03-16 04:02:00,37.0,23.0,29.93,SSE,158,3.0,3.0,57,0.00,,,0.00,,2013-03-16 11:02:00,
2013-03-16 04:21:00,37.0,24.0,29.93,SSE,158,2.0,2.0,58,0.00,,,0.00,,2013-03-16 11:21:00,
2013-03-16 04:32:00,37.0,24.0,29.93,SSW,202,1.0,2.0,59,0.00,,,0.00,,2013-03-16 11:32:00,
2013-03-16 04:42:00,37.0,24.0,29.93,SSW,202,1.0,2.0,59,0.00,,,0.00,,2013-03-16 11:42:00,
2013-03-16 04:52:00,37.0,24.0,29.93,South,178,2.0,3.0,59,0.00,,,0.00,,2013-03-16 11:52:00,
2013-03-16 05:01:00,37.0,24.0,29.93,SSE,158,2.0,2.0,59,0.00,,,0.00,,2013-03-16 12:01:00,
2013-03-16 05:12:00,37.0,24.0,29.93,SSE,158,2.0,2.0,59,0.00,,,0.00,,2013-03-16 12:12:00,
2013-03-16 05:22:00,37.0,24.0,29.93,SSE,158,2.0,3.0,60,0.00,,,0.00,,2013-03-16 12:22:00,
2013-03-16 05:32:00,38.0,25.0,29.93,South,180,3.0,5.0,59,0.00,,,0.00,,2013-03-16 12:32:00,
2013-03-16 05:42:00,38.0,25.0,29.93,South,180,3.0,5.0,59,0.00,,,0.00,,2013-03-16 12:42:00,
2013-03-16 05:52:00,38.0,25.0,29.93,South,180,3.0,5.0,59,0.00,,,0.00,,2013-03-16 12:52:00,
2013-03-16 06:02:00,38.0,25.0,29.93,SW,225,3.0,6.0,58,0.00,,,0.00,,2013-03-16 13:02:00,
2013-03-16 06:12:00,38.0,25.0,29.93,SW,225,3.0,6.0,58,0.00,,,0.00,,2013-03-16 13:12:00,
2013-03-16 06:22:00,38.0,25.0,29.93,SSW,195,3.0,6.0,58,0.00,,,0.00,,2013-03-16 13:22:00,
2013-03-16 06:32:00,38.0,24.0,29.93,SSW,202,5.0,6.0,57,0.00,,,0.00,,2013-03-16 13:32:00,
2013-03-16 06:41:00,38.0,24.0,29.93,SSW,202,5.0,6.0,57,0.00,,,0.00,,2013-03-16 13:41:00,
2013-03-16 06:52:00,38.0,24.0,29.93,SW,226,4.0,6.0,57,0.00,,,0.00,,2013-03-16 13:52:00,
2013-03-16 07:02:00,38.0,24.0,29.90,WSW,241,3.0,5.0,57,0.00,,,0.00,,2013-03-16 14:02:00,
2013-03-16 07:11:00,38.0,24.0,29.90,WSW,241,3.0,5.0,57,0.00,,,0.00,,2013-03-16 14:11:00,
2013-03-16 07:22:00,38.0,24.0,29.90,SSE,162,2.0,3.0,57,0.00,,,0.00,,2013-03-16 14:22:00,
2013-03-16 07:32:00,38.0,24.0,29.90,SSW,213,3.0,6.0,57,0.00,,,0.00,,2013-03-16 14:32:00,
2013-03-16 07:42:00,38.0,24.0,29.90,SSW,213,3.0,6.0,57,0.00,,,0.00,,2013-03-16 14:42:00,
2013-03-16 07:52:00,38.0,24.0,29.90,SSW,213,3.0,6.0,57,0.00,,,0.00,,2013-03-16 14:52:00,
2013-03-16 08:02:00,38.0,25.0,29.90,WSW,238,3.0,6.0,58,0.00,,,0.00,,2013-03-16 15:02:00,
2013-03-16 08:12:00,38.0,25.0,29.90,WSW,238,3.0,6.0,58,0.00,,,0.00,,2013-03-16 15:12:00,
2013-03-16 08:22:00,39.0,25.0,29.90,SW,225,3.0,6.0,57,0.00,,,0.00,,2013-03-16 15:22:00,
2013-03-16 08:33:00,39.0,25.0,29.90,SW,225,3.0,6.0,57,0.00,,,0.00,,2013-03-16 15:33:00,
2013-03-16 08:42:00,39.0,25.0,29.90,SW,225,3.0,6.0,57,0.00,,,0.00,,2013-03-16 15:42:00,
2013-03-16 08:52:00,41.0,27.0,29.90,SSW,202,6.0,7.0,56,0.00,,,0.00,,2013-03-16 15:52:00,
2013-03-16 09:02:00,42.0,27.0,29.90,SW,224,5.0,7.0,55,0.00,,,0.00,,2013-03-16 16:02:00,
2013-03-16 09:12:00,42.0,27.0,29.90,SW,224,5.0,7.0,55,0.00,,,0.00,,2013-03-16 16:12:00,
2013-03-16 09:22:00,43.0,28.0,29.90,SW,224,5.0,8.0,54,0.00,,,0.00,,2013-03-16 16:22:00,
2013-03-16 09:33:00,45.0,29.0,29.90,SW,226,5.0,9.0,53,0.00,,,0.00,,2013-03-16 16:33:00,
2013-03-16 09:42:00,45.0,29.0,29.90,SW,226,5.0,9.0,53,0.00,,,0.00,,2013-03-16 16:42:00,
2013-03-16 09:52:00,46.0,29.0,29.90,SW,233,5.0,8.0,52,0.00,,,0.00,,2013-03-16 16:52:00,
2013-03-16 10:02:00,47.0,29.0,29.90,WSW,248,5.0,10.0,50,0.00,,,0.00,,2013-03-16 17:02:00,
2013-03-16 10:22:00,47.0,29.0,29.90,WSW,238,8.0,13.0,49,0.00,,,0.00,,2013-03-16 17:22:00,
2013-03-16 10:32:00,48.0,29.0,29.90,WSW,240,9.0,14.0,47,0.00,,,0.00,,2013-03-16 17:32:00,
2013-03-16 10:42:00,48.0,29.0,29.90,WSW,240,9.0,14.0,47,0.00,,,0.00,,2013-03-16 17:42:00,
2013-03-16 10:52:00,48.0,29.0,29.90,WSW,240,9.0,14.0,47,0.00,,,0.00,,2013-03-16 17:52:00,
2013-03-16 11:02:00,50.0,29.0,29.90,West,261,7.0,14.0,45,0.00,,,0.00,,2013-03-16 18:02:00,
2013-03-16 11:12:00,50.0,29.0,29.90,West,261,7.0,14.0,45,0.00,,,0.00,,2013-03-16 18:12:00,
2013-03-16 11:22:00,52.0,30.0,29.87,SSW,200,6.0,10.0,43,0.00,,,0.00,,2013-03-16 18:22:00,
2013-03-16 11:32:00,53.0,29.0,29.87,West,277,10.0,14.0,40,0.00,,,0.00,,2013-03-16 18:32:00,
2013-03-16 11:52:00,53.0,29.0,29.87,WSW,248,6.0,13.0,39,0.00,,,0.00,,2013-03-16 18:52:00,
2013-03-16 12:01:00,53.0,28.0,29.87,WSW,253,9.0,14.0,38,0.00,,,0.00,,2013-03-16 19:01:00,
2013-03-16 12:22:00,54.0,29.0,29.87,WSW,249,9.0,15.0,38,0.00,,,0.00,,2013-03-16 19:22:00,
2013-03-16 12:32:00,53.0,28.0,29.87,SSW,213,6.0,10.0,38,0.00,,,0.00,,2013-03-16 19:32:00,
2013-03-16 12:42:00,53.0,28.0,29.87,SSW,213,6.0,10.0,38,0.00,,,0.00,,2013-03-16 19:42:00,
2013-03-16 12:52:00,55.0,29.0,29.84,West,265,8.0,14.0,37,0.00,,,0.00,,2013-03-16 19:52:00,
2013-03-16 13:02:00,55.0,29.0,29.84,West,274,8.0,14.0,37,0.00,,,0.00,,2013-03-16 20:02:00,
2013-03-16 13:21:00,55.0,29.0,29.84,WNW,283,10.0,17.0,36,0.00,,,0.00,,2013-03-16 20:21:00,
2013-03-16 13:32:00,54.0,28.0,29.84,WNW,298,11.0,18.0,36,0.00,,,0.00,,2013-03-16 20:32:00,
2013-03-16 13:42:00,54.0,28.0,29.84,WNW,298,11.0,18.0,36,0.00,,,0.00,,2013-03-16 20:42:00,
2013-03-16 13:52:00,54.0,28.0,29.84,WNW,298,11.0,18.0,36,0.00,,,0.00,,2013-03-16 20:52:00,
2013-03-16 14:02:00,50.0,25.0,29.81,WSW,254,12.0,16.0,37,0.00,,,0.00,,2013-03-16 21:02:00,
2013-03-16 14:11:00,50.0,25.0,29.81,WSW,254,12.0,16.0,37,0.00,,,0.00,,2013-03-16 21:11:00,
2013-03-16 14:22:00,50.0,25.0,29.81,WSW,254,12.0,16.0,37,0.00,,,0.00,,2013-03-16 21:22:00,
2013-03-16 14:32:00,48.0,24.0,29.81,West,262,10.0,17.0,38,0.00,,,0.00,,2013-03-16 21:32:00,
2013-03-16 14:42:00,48.0,24.0,29.81,West,262,10.0,17.0,38,0.00,,,0.00,,2013-03-16 21:42:00,
2013-03-16 14:52:00,47.0,23.0,29.81,WSW,248,7.0,17.0,38,0.00,,,0.00,,2013-03-16 21:52:00,
2013-03-16 15:03:00,46.0,23.0,29.81,West,273,10.0,17.0,40,0.00,,,0.00,,2013-03-16 22:03:00,
2013-03-16 15:12:00,46.0,23.0,29.81,West,273,10.0,17.0,40,0.00,,,0.00,,2013-03-16 22:12:00,
2013-03-16 15:22:00,45.0,24.0,29.81,West,268,9.0,14.0,43,0.00,,,0.00,,2013-03-16 22:22:00,
2013-03-16 15:32:00,44.0,23.0,29.81,SW,224,7.0,12.0,44,0.00,,,0.00,,2013-03-16 22:32:00,
2013-03-16 15:42:00,44.0,23.0,29.81,SW,224,7.0,12.0,44,0.00,,,0.00,,2013-03-16 22:42:00,
2013-03-16 15:52:00,44.0,23.0,29.78,WSW,244,6.0,12.0,44,0.00,,,0.00,,2013-03-16 22:52:00,
2013-03-16 16:02:00,44.0,23.0,29.78,SW,230,6.0,10.0,44,0.00,,,0.00,,2013-03-16 23:02:00,
2013-03-16 16:12:00,44.0,23.0,29.78,SW,230,6.0,10.0,44,0.00,,,0.00,,2013-03-16 23:12:00,
2013-03-16 16:22:00,44.0,23.0,29.81,WSW,247,8.0,16.0,44,0.00,,,0.00,,2013-03-16 23:22:00,
2013-03-16 16:32:00,45.0,25.0,29.78,SW,226,6.0,15.0,45,0.00,,,0.00,,2013-03-16 23:32:00,
2013-03-16 16:42:00,45.0,25.0,29.78,SW,226,6.0,15.0,45,0.00,,,0.00,,2013-03-16 23:42:00,
2013-03-16 16:52:00,46.0,25.0,29.78,WSW,239,8.0,15.0,44,0.00,,,0.00,,2013-03-16 23:52:00,
2013-03-16 17:01:00,46.0,25.0,29.78,SSW,212,10.0,15.0,44,0.00,,,0.00,,2013-03-17 00:01:00,
2013-03-16 17:12:00,46.0,25.0,29.78,SSW,212,10.0,15.0,44,0.00,,,0.00,,2013-03-17 00:12:00,
2013-03-16 17:22:00,47.0,26.0,29.75,WSW,248,9.0,16.0,43,0.00,,,0.00,,2013-03-17 00:22:00,
2013-03-16 17:32:00,46.0,24.0,29.75,WSW,242,12.0,18.0,42,0.00,,,0.00,,2013-03-17 00:32:00,
2013-03-16 17:42:00,46.0,24.0,29.75,WSW,242,12.0,18.0,42,0.00,,,0.00,,2013-03-17 00:42:00,
2013-03-16 17:52:00,45.0,23.0,29.78,SW,226,11.0,18.0,42,0.00,,,0.00,,2013-03-17 00:52:00,
2013-03-16 18:02:00,46.0,24.0,29.75,SSW,211,8.0,13.0,42,0.00,,,0.00,,2013-03-17 01:02:00,
2013-03-16 18:11:00,46.0,24.0,29.75,SSW,211,8.0,13.0,42,0.00,,,0.00,,2013-03-17 01:11:00,
2013-03-16 18:22:00,46.0,24.0,29.75,SW,219,9.0,15.0,42,0.00,,,0.00,,2013-03-17 01:22:00,
2013-03-16 18:32:00,44.0,23.0,29.75,SSW,208,10.0,13.0,43,0.00,,,0.00,,2013-03-17 01:32:00,
2013-03-16 18:41:00,44.0,23.0,29.75,SSW,208,10.0,13.0,43,0.00,,,0.00,,2013-03-17 01:41:00,
2013-03-16 18:52:00,44.0,23.0,29.72,SSW,209,9.0,15.0,43,0.00,,,0.00,,2013-03-17 01:52:00,
2013-03-16 19:02:00,42.0,22.0,29.75,WSW,241,11.0,14.0,45,0.00,,,0.00,,2013-03-17 02:02:00,
2013-03-16 19:11:00,42.0,22.0,29.75,WSW,241,11.0,14.0,45,0.00,,,0.00,,2013-03-17 02:11:00,
2013-03-16 19:22:00,42.0,22.0,29.72,SW,225,7.0,17.0,45,0.00,,,0.00,,2013-03-17 02:22:00,
2013-03-16 19:32:00,40.0,22.0,29.72,WSW,256,8.0,15.0,48,0.00,,,0.00,,2013-03-17 02:32:00,
2013-03-16 19:42:00,40.0,22.0,29.72,WSW,256,8.0,15.0,48,0.00,,,0.00,,2013-03-17 02:42:00,
2013-03-16 19:52:00,40.0,22.0,29.72,WSW,238,10.0,17.0,49,0.00,,,0.00,,2013-03-17 02:52:00,
2013-03-16 20:02:00,39.0,23.0,29.72,West,268,12.0,22.0,52,0.00,,,0.00,,2013-03-17 03:02:00,
2013-03-16 20:11:00,39.0,23.0,29.72,West,268,12.0,22.0,52,0.00,,,0.00,,2013-03-17 03:11:00,
2013-03-16 20:21:00,40.0,24.0,29.75,WSW,239,10.0,17.0,53,0.00,,,0.00,,2013-03-17 03:21:00,
2013-03-16 20:33:00,34.0,29.0,29.75,WNW,292,16.0,25.0,83,0.00,,,0.00,,2013-03-17 03:33:00,
2013-03-16 20:42:00,34.0,29.0,29.75,WNW,292,16.0,25.0,83,0.00,,,0.00,,2013-03-17 03:42:00,
2013-03-16 20:52:00,34.0,30.0,29.75,WNW,292,12.0,17.0,85,0.00,,,0.00,,2013-03-17 03:52:00,
2013-03-16 21:02:00,33.0,29.0,29.78,WNW,293,13.0,18.0,86,0.00,,,0.00,,2013-03-17 04:02:00,
2013-03-16 21:12:00,33.0,29.0,29.78,WNW,293,13.0,18.0,86,0.00,,,0.00,,2013-03-17 04:12:00,
2013-03-16 21:22:00,33.0,29.0,29.78,WNW,296,9.0,16.0,85,0.00,,,0.00,,2013-03-17 04:22:00,
2013-03-16 21:32:00,33.0,28.0,29.78,WNW,292,10.0,14.0,83,0.00,,,0.00,,2013-03-17 04:32:00,
2013-03-16 21:42:00,33.0,28.0,29.78,WNW,292,10.0,14.0,83,0.00,,,0.00,,2013-03-17 04:42:00,
2013-03-16 21:52:00,33.0,28.0,29.78,WNW,292,9.0,15.0,80,0.00,,,0.00,,2013-03-17 04:52:00,
2013-03-16 22:02:00,33.0,26.0,29.81,WNW,300,11.0,17.0,74,0.00,,,0.00,,2013-03-17 05:02:00,
2013-03-16 22:11:00,33.0,26.0,29.81,WNW,300,11.0,17.0,74,0.00,,,0.00,,2013-03-17 05:11:00,
2013-03-16 22:22:00,33.0,26.0,29.81,WNW,300,11.0,17.0,74,0.00,,,0.00,,2013-03-17 05:22:00,
2013-03-16 22:32:00,33.0,24.0,29.78,WSW,255,5.0,10.0,70,0.00,,,0.00,,2013-03-17 05:32:00,
2013-03-16 22:42:00,33.0,24.0,29.78,WSW,255,5.0,10.0,70,0.00,,,0.00,,2013-03-17 05:42:00,
2013-03-16 22:52:00,33.0,25.0,29.81,West,277,4.0,9.0,71,0.00,,,0.00,,2013-03-17 05:52:00,
2013-03-16 23:02:00,33.0,25.0,29.81,WNW,282,6.0,8.0,71,0.00,,,0.00,,2013-03-17 06:02:00,
2013-03-16 23:12:00,33.0,25.0,29.81,WNW,282,6.0,8.0,71,0.00,,,0.00,,2013-03-17 06:12:00,
2013-03-16 23:21:00,33.0,24.0,29.81,West,263,6.0,10.0,69,0.00,,,0.00,,2013-03-17 06:21:00,
2013-03-16 23:32:00,32.0,23.0,29.78,WSW,258,5.0,9.0,69,0.00,,,0.00,,2013-03-17 06:32:00,
2013-03-16 23:42:00,32.0,23.0,29.78,WSW,258,5.0,9.0,69,0.00,,,0.00,,2013-03-17 06:42:00,
2013-03-16 23:52:00,32.0,23.0,29.81,WNW,292,5.0,9.0,69,0.00,,,0.00,,2013-03-17 06:52:00,